GFSGBSN_prec_pwat_159.txt.gz
Precipitable_Water
0.92 0.91 0.88 0.84 0.82 0.80 0.78 0.77 0.74 0.72 0.67 0.61 0.60 0.62 0.62 0.62 0.61 0.59 0.57 0.52 0.47 0.47 0.48 0.47 0.45 0.46 0.38 0.30 0.43 0.73 0.62 0.64 0.59 0.80 0.89 0.84 0.84 0.96 1.02 1.30 1.40 1.24 1.29 1.26 1.49 1.54 1.48
0.90 0.91 0.90 0.88 0.85 0.81 0.77 0.76 0.73 0.71 0.66 0.64 0.59 0.59 0.61 0.63 0.64 0.63 0.59 0.59 0.56 0.53 0.49 0.46 0.44 0.50 0.31 0.27 0.67 0.72 0.57 0.54 0.56 0.87 0.89 0.87 0.78 1.10 1.14 1.19 1.46 1.35 1.30 1.34 1.45 1.50 1.45
0.95 0.94 0.93 0.92 0.90 0.88 0.86 0.82 0.78 0.72 0.69 0.64 0.61 0.56 0.58 0.62 0.66 0.68 0.67 0.60 0.61 0.62 0.60 0.57 0.54 0.55 0.38 0.55 0.72 0.69 0.49 0.46 0.61 0.80 0.72 0.82 0.80 0.91 1.02 1.10 1.46 1.23 1.11 1.19 1.20 1.34 1.21
1.04 1.03 1.02 0.98 0.99 0.96 0.89 0.86 0.83 0.77 0.73 0.71 0.64 0.59 0.54 0.57 0.64 0.67 0.67 0.66 0.67 0.60 0.61 0.59 0.58 0.55 0.28 0.60 0.71 0.62 0.51 0.45 0.56 0.76 0.70 0.78 0.83 1.00 1.01 1.20 1.12 1.04 1.09 0.89 1.11 1.24 1.24
1.10 1.11 1.09 1.06 1.05 1.02 0.97 0.93 0.89 0.85 0.80 0.74 0.72 0.69 0.60 0.55 0.59 0.63 0.65 0.64 0.68 0.71 0.61 0.59 0.52 0.50 0.36 0.75 0.59 0.52 0.50 0.43 0.49 0.58 0.62 0.70 0.78 0.93 1.00 0.86 0.87 0.92 0.76 0.80 0.95 1.16 1.21
1.16 1.16 1.13 1.10 1.07 1.03 0.99 0.97 0.94 0.92 0.93 0.94 0.86 0.80 0.77 0.64 0.56 0.58 0.61 0.64 0.77 0.77 0.64 0.70 0.63 0.49 0.64 0.54 0.57 0.39 0.43 0.44 0.45 0.48 0.52 0.61 0.67 0.70 0.81 0.80 0.64 0.67 0.70 0.78 0.80 0.98 1.14
1.21 1.19 1.16 1.11 1.04 1.01 1.01 0.99 0.98 0.96 0.98 1.03 1.01 0.93 0.84 0.78 0.64 0.56 0.56 0.65 0.66 0.62 0.67 0.45 0.53 0.48 0.56 0.58 0.62 0.38 0.36 0.37 0.39 0.41 0.41 0.48 0.49 0.50 0.62 0.78 0.85 0.83 0.81 0.78 0.91 1.00 1.01
1.23 1.21 1.17 1.12 1.04 1.03 1.01 1.00 0.97 0.96 0.98 1.01 1.03 1.02 0.89 0.82 0.73 0.60 0.53 0.46 0.57 0.62 0.43 0.55 0.54 0.53 0.59 0.50 0.37 0.32 0.30 0.27 0.27 0.30 0.46 0.45 0.42 0.48 0.70 0.76 0.76 0.82 0.82 0.75 0.94 0.99 0.99
1.22 1.21 1.17 1.11 1.05 1.05 1.02 0.99 0.95 0.93 0.94 0.96 0.99 1.03 1.00 0.83 0.76 0.61 0.41 0.37 0.56 0.60 0.43 0.43 0.49 0.51 0.49 0.46 0.35 0.31 0.30 0.31 0.34 0.42 0.45 0.40 0.48 0.59 0.71 0.65 0.63 0.73 0.81 0.84 0.83 0.99 0.92
1.22 1.18 1.15 1.07 1.06 1.03 1.00 0.96 0.92 0.89 0.89 0.89 0.94 0.99 1.01 0.81 0.67 0.66 0.46 0.35 0.52 0.61 0.46 0.48 0.49 0.54 0.44 0.42 0.30 0.37 0.35 0.33 0.38 0.39 0.39 0.41 0.48 0.47 0.50 0.53 0.59 0.55 0.78 0.84 0.88 0.73 0.57
1.16 1.14 1.11 1.07 1.04 1.01 0.97 0.93 0.89 0.86 0.86 0.87 0.91 0.98 1.01 0.85 0.65 0.58 0.61 0.60 0.56 0.57 0.31 0.55 0.51 0.55 0.47 0.40 0.35 0.35 0.41 0.34 0.33 0.35 0.31 0.32 0.37 0.36 0.33 0.36 0.44 0.42 0.62 0.64 0.78 0.67 0.65
1.16 1.13 1.07 1.03 1.00 0.97 0.93 0.90 0.90 0.88 0.85 0.87 0.90 0.98 1.00 0.83 0.76 0.67 0.67 0.61 0.54 0.39 0.35 0.48 0.50 0.49 0.45 0.41 0.39 0.39 0.39 0.40 0.38 0.33 0.30 0.28 0.34 0.31 0.32 0.32 0.43 0.46 0.46 0.48 0.55 0.64 0.50
1.17 1.12 1.08 1.02 1.00 0.96 0.91 0.88 0.89 0.90 0.86 0.85 0.89 0.97 0.92 0.81 0.70 0.79 0.71 0.49 0.36 0.35 0.50 0.45 0.47 0.50 0.45 0.38 0.41 0.38 0.34 0.32 0.27 0.24 0.22 0.25 0.26 0.29 0.34 0.33 0.40 0.40 0.38 0.36 0.49 0.61 0.53
1.16 1.10 1.05 1.01 0.99 0.96 0.92 0.89 0.88 0.88 0.86 0.83 0.88 0.92 0.84 0.76 0.85 0.84 0.60 0.40 0.32 0.45 0.48 0.54 0.50 0.49 0.44 0.44 0.42 0.42 0.37 0.32 0.31 0.27 0.26 0.24 0.26 0.30 0.34 0.34 0.36 0.45 0.48 0.40 0.35 0.44 0.47
1.14 1.10 1.05 1.01 0.99 0.97 0.94 0.90 0.86 0.86 0.83 0.82 0.90 0.86 0.86 0.82 0.76 0.78 0.51 0.34 0.36 0.45 0.50 0.43 0.49 0.44 0.42 0.44 0.44 0.43 0.40 0.38 0.37 0.34 0.27 0.26 0.26 0.36 0.36 0.40 0.42 0.51 0.51 0.57 0.47 0.47 0.40
1.13 1.09 1.05 1.02 0.98 0.98 0.95 0.89 0.84 0.83 0.82 0.82 0.86 0.87 0.85 0.91 0.78 0.67 0.47 0.37 0.39 0.45 0.44 0.43 0.39 0.51 0.47 0.43 0.41 0.41 0.41 0.44 0.43 0.44 0.40 0.35 0.29 0.38 0.39 0.43 0.43 0.42 0.59 0.39 0.46 0.34 0.38
1.15 1.11 1.07 1.03 0.98 0.98 0.96 0.91 0.86 0.82 0.80 0.81 0.81 0.78 0.80 0.82 0.77 0.54 0.41 0.41 0.44 0.47 0.47 0.42 0.40 0.43 0.50 0.47 0.47 0.44 0.43 0.46 0.49 0.49 0.48 0.40 0.37 0.36 0.43 0.43 0.41 0.41 0.33 0.39 0.44 0.43 0.38
1.20 1.17 1.14 1.09 1.02 0.99 0.96 0.92 0.87 0.85 0.79 0.74 0.75 0.67 0.89 0.82 0.52 0.50 0.45 0.48 0.49 0.46 0.47 0.44 0.43 0.40 0.44 0.48 0.48 0.51 0.52 0.52 0.56 0.52 0.46 0.47 0.37 0.31 0.34 0.52 0.62 0.52 0.39 0.38 0.38 0.36 0.45
1.23 1.21 1.18 1.13 1.03 1.02 1.01 0.95 0.90 0.86 0.82 0.74 0.66 0.74 0.90 0.79 0.44 0.46 0.53 0.58 0.63 0.54 0.48 0.44 0.42 0.44 0.46 0.44 0.43 0.51 0.54 0.60 0.61 0.53 0.50 0.49 0.36 0.27 0.30 0.38 0.58 0.58 0.46 0.48 0.52 0.45 0.41
1.27 1.25 1.19 1.15 1.05 0.99 0.99 0.97 0.95 0.88 0.84 0.79 0.70 0.59 0.74 0.77 0.75 0.61 0.57 0.58 0.57 0.67 0.61 0.53 0.48 0.44 0.40 0.43 0.45 0.45 0.51 0.56 0.61 0.54 0.55 0.53 0.43 0.38 0.32 0.40 0.50 0.48 0.54 0.60 0.55 0.45 0.45
1.28 1.24 1.14 1.08 1.04 0.99 0.96 0.92 0.89 0.83 0.83 0.82 0.64 0.53 0.57 0.50 0.56 0.58 0.59 0.56 0.53 0.52 0.61 0.64 0.52 0.47 0.40 0.36 0.42 0.45 0.53 0.55 0.58 0.59 0.55 0.51 0.42 0.42 0.44 0.48 0.57 0.60 0.59 0.60 0.52 0.50 0.46
1.27 1.24 1.19 1.05 0.97 0.92 0.89 0.90 0.89 0.82 0.82 0.76 0.55 0.53 0.58 0.49 0.52 0.50 0.54 0.49 0.50 0.54 0.54 0.52 0.54 0.59 0.56 0.44 0.43 0.45 0.51 0.56 0.58 0.64 0.61 0.57 0.44 0.44 0.41 0.46 0.52 0.53 0.61 0.56 0.53 0.54 0.53
1.24 1.23 1.15 1.02 0.94 0.92 0.89 0.90 0.89 0.82 0.77 0.67 0.75 0.78 0.61 0.49 0.50 0.47 0.49 0.50 0.50 0.55 0.58 0.60 0.61 0.60 0.62 0.65 0.68 0.68 0.66 0.66 0.65 0.65 0.64 0.59 0.53 0.48 0.39 0.43 0.50 0.50 0.60 0.62 0.59 0.63 0.59
1.17 1.16 1.06 0.97 0.93 0.90 0.87 0.90 0.89 0.84 0.81 0.73 0.76 0.75 0.59 0.44 0.51 0.51 0.54 0.54 0.51 0.54 0.51 0.57 0.62 0.60 0.71 0.81 0.77 0.75 0.71 0.66 0.66 0.68 0.72 0.62 0.57 0.55 0.46 0.46 0.36 0.58 0.66 0.71 0.65 0.67 0.60
1.14 1.06 1.03 0.96 0.96 0.93 0.92 0.93 0.92 0.88 0.85 0.73 0.80 0.76 0.64 0.48 0.55 0.54 0.56 0.57 0.59 0.59 0.56 0.58 0.63 0.70 0.74 0.70 0.60 0.55 0.55 0.56 0.56 0.61 0.67 0.68 0.60 0.51 0.45 0.42 0.46 0.54 0.66 0.67 0.59 0.59 0.59
1.14 1.03 1.00 0.96 0.95 0.94 0.94 0.92 0.91 0.90 0.85 0.78 0.80 0.88 0.73 0.56 0.54 0.63 0.57 0.61 0.56 0.57 0.58 0.67 0.72 0.81 0.78 0.65 0.57 0.45 0.41 0.48 0.47 0.50 0.60 0.57 0.67 0.56 0.49 0.41 0.35 0.50 0.68 0.79 0.79 0.55 0.66
1.07 1.04 1.04 1.00 0.98 0.97 0.96 0.92 0.90 0.90 0.88 0.81 0.84 0.91 0.78 0.59 0.61 0.65 0.56 0.55 0.63 0.58 0.53 0.62 0.64 0.66 0.76 0.64 0.55 0.49 0.45 0.50 0.42 0.43 0.47 0.53 0.49 0.48 0.49 0.44 0.46 0.58 0.74 0.85 0.56 0.59 0.77
1.10 1.05 1.03 1.01 0.99 0.98 0.96 0.92 0.90 0.89 0.88 0.83 0.76 0.94 0.83 0.67 0.63 0.67 0.69 0.60 0.62 0.62 0.53 0.62 0.59 0.67 0.67 0.61 0.58 0.58 0.53 0.54 0.53 0.57 0.55 0.54 0.52 0.48 0.51 0.44 0.42 0.70 0.69 0.62 0.83 0.81 0.80
1.05 1.03 1.01 1.00 0.98 0.98 0.96 0.93 0.88 0.89 0.87 0.84 0.67 0.82 0.85 0.67 0.59 0.70 0.70 0.73 0.71 0.69 0.59 0.64 0.64 0.70 0.75 0.66 0.69 0.72 0.70 0.67 0.63 0.50 0.73 0.55 0.68 0.57 0.60 0.59 0.74 0.79 0.72 0.84 0.87 0.87 0.80

GFSGBSN_prec_pwat_162.txt.gz
Precipitable_Water
0.93 0.91 0.90 0.88 0.85 0.82 0.78 0.74 0.70 0.67 0.64 0.61 0.57 0.57 0.59 0.62 0.62 0.61 0.60 0.58 0.54 0.49 0.48 0.46 0.45 0.44 0.39 0.27 0.42 0.71 0.79 0.73 0.64 0.69 0.78 0.96 0.84 1.00 0.90 0.99 1.17 1.19 1.43 1.43 1.46 1.49 1.48
1.02 1.00 0.97 0.97 0.95 0.88 0.85 0.83 0.78 0.74 0.70 0.65 0.59 0.55 0.56 0.60 0.64 0.66 0.62 0.61 0.61 0.60 0.56 0.48 0.45 0.47 0.29 0.18 0.61 0.67 0.64 0.60 0.53 0.75 0.89 0.93 0.81 0.93 0.88 0.90 1.01 1.19 1.33 1.38 1.41 1.50 1.47
1.09 1.08 1.05 1.03 1.01 0.95 0.93 0.90 0.86 0.82 0.76 0.72 0.69 0.60 0.55 0.57 0.61 0.66 0.67 0.65 0.58 0.63 0.61 0.57 0.55 0.55 0.34 0.35 0.72 0.74 0.59 0.43 0.55 0.84 0.88 0.86 0.85 0.86 0.87 0.91 1.21 1.16 1.10 1.19 1.26 1.30 1.33
1.13 1.11 1.08 1.05 1.00 0.98 0.96 0.93 0.90 0.87 0.85 0.81 0.74 0.74 0.64 0.56 0.59 0.62 0.64 0.66 0.65 0.66 0.60 0.57 0.59 0.53 0.28 0.58 0.66 0.62 0.57 0.46 0.57 0.85 0.81 0.84 0.98 0.90 0.89 1.11 1.06 0.97 1.06 0.84 1.15 1.21 1.28
1.16 1.15 1.10 1.05 0.99 0.98 0.96 0.95 0.92 0.90 0.92 0.96 0.97 0.85 0.80 0.69 0.58 0.59 0.61 0.65 0.72 0.72 0.66 0.61 0.52 0.55 0.28 0.63 0.56 0.62 0.55 0.47 0.51 0.68 0.70 0.72 0.80 0.83 0.94 0.85 0.79 0.89 0.75 0.80 0.91 1.22 1.15
1.18 1.16 1.12 1.04 1.01 0.99 0.96 0.94 0.91 0.90 0.90 0.95 0.98 1.00 0.89 0.83 0.69 0.57 0.57 0.65 0.77 0.76 0.68 0.75 0.61 0.44 0.52 0.49 0.56 0.59 0.55 0.46 0.48 0.52 0.50 0.51 0.67 0.70 0.76 0.72 0.59 0.71 0.71 0.76 0.79 1.01 1.15
1.18 1.15 1.10 1.03 1.01 0.98 0.95 0.93 0.90 0.87 0.86 0.91 0.94 0.98 0.99 0.87 0.80 0.64 0.51 0.58 0.57 0.58 0.64 0.44 0.44 0.48 0.53 0.62 0.70 0.51 0.43 0.40 0.45 0.41 0.36 0.54 0.49 0.47 0.56 0.66 0.79 0.86 0.77 0.78 0.84 0.94 1.02
1.15 1.12 1.05 1.03 0.99 0.97 0.94 0.90 0.87 0.84 0.84 0.86 0.89 0.94 0.99 0.93 0.84 0.71 0.52 0.42 0.54 0.58 0.39 0.51 0.51 0.53 0.58 0.58 0.46 0.40 0.38 0.32 0.32 0.28 0.39 0.44 0.41 0.50 0.59 0.67 0.71 0.77 0.75 0.78 0.91 0.96 1.06
1.10 1.07 1.03 0.98 0.97 0.94 0.91 0.88 0.86 0.84 0.83 0.85 0.84 0.91 0.97 0.99 0.83 0.69 0.46 0.40 0.56 0.52 0.40 0.54 0.50 0.49 0.50 0.55 0.42 0.36 0.29 0.28 0.26 0.29 0.41 0.41 0.46 0.51 0.53 0.62 0.60 0.65 0.67 0.78 0.80 0.90 0.97
1.11 1.06 1.01 0.98 0.96 0.92 0.88 0.85 0.86 0.86 0.85 0.85 0.85 0.91 0.97 0.98 0.66 0.64 0.51 0.48 0.62 0.53 0.44 0.45 0.49 0.48 0.51 0.52 0.38 0.40 0.34 0.31 0.32 0.31 0.41 0.44 0.47 0.44 0.48 0.61 0.63 0.51 0.72 0.81 0.79 0.78 0.63
1.10 1.06 1.02 0.99 0.96 0.93 0.90 0.87 0.85 0.86 0.87 0.85 0.86 0.90 0.97 0.98 0.66 0.56 0.61 0.67 0.65 0.51 0.28 0.53 0.53 0.66 0.56 0.42 0.36 0.36 0.41 0.37 0.32 0.33 0.37 0.37 0.36 0.31 0.32 0.43 0.56 0.44 0.62 0.69 0.78 0.80 0.76
1.09 1.05 1.01 0.97 0.93 0.92 0.90 0.89 0.88 0.86 0.87 0.86 0.84 0.89 0.97 0.90 0.72 0.67 0.75 0.69 0.56 0.37 0.33 0.47 0.53 0.49 0.47 0.45 0.40 0.39 0.37 0.42 0.37 0.35 0.33 0.35 0.36 0.32 0.32 0.32 0.42 0.46 0.49 0.69 0.81 0.81 0.53
1.09 1.06 1.03 0.98 0.94 0.91 0.91 0.89 0.87 0.85 0.85 0.85 0.83 0.88 0.92 0.86 0.62 0.78 0.74 0.53 0.34 0.35 0.51 0.46 0.46 0.47 0.47 0.44 0.41 0.41 0.36 0.37 0.34 0.23 0.24 0.28 0.29 0.31 0.31 0.28 0.34 0.39 0.39 0.38 0.47 0.50 0.52
1.12 1.08 1.04 0.99 0.95 0.90 0.92 0.89 0.86 0.84 0.83 0.82 0.84 0.88 0.86 0.77 0.80 0.78 0.61 0.39 0.29 0.43 0.44 0.48 0.42 0.47 0.44 0.46 0.43 0.41 0.38 0.37 0.41 0.35 0.25 0.23 0.21 0.30 0.32 0.30 0.31 0.37 0.39 0.33 0.32 0.40 0.49
1.15 1.11 1.08 1.04 0.97 0.93 0.92 0.90 0.87 0.84 0.80 0.80 0.86 0.84 0.80 0.75 0.83 0.77 0.51 0.33 0.31 0.43 0.46 0.40 0.41 0.44 0.43 0.44 0.44 0.42 0.39 0.37 0.40 0.42 0.34 0.28 0.28 0.35 0.36 0.34 0.35 0.38 0.40 0.55 0.46 0.53 0.46
1.16 1.14 1.09 1.08 1.03 0.95 0.94 0.92 0.88 0.86 0.80 0.76 0.79 0.84 0.79 0.88 0.77 0.67 0.46 0.36 0.37 0.43 0.47 0.45 0.38 0.41 0.39 0.47 0.42 0.43 0.41 0.43 0.41 0.44 0.44 0.39 0.29 0.37 0.39 0.41 0.38 0.40 0.51 0.45 0.45 0.35 0.37
1.19 1.16 1.12 1.09 1.05 0.95 0.92 0.95 0.90 0.84 0.78 0.77 0.78 0.65 0.82 0.93 0.80 0.59 0.40 0.40 0.42 0.44 0.48 0.44 0.41 0.40 0.41 0.43 0.46 0.44 0.46 0.50 0.47 0.46 0.46 0.43 0.37 0.37 0.40 0.37 0.37 0.41 0.38 0.40 0.43 0.44 0.38
1.20 1.18 1.15 1.10 1.01 0.99 0.91 0.92 0.90 0.86 0.77 0.75 0.70 0.56 0.73 0.73 0.54 0.50 0.43 0.46 0.51 0.51 0.57 0.54 0.47 0.41 0.40 0.42 0.44 0.44 0.44 0.50 0.59 0.55 0.45 0.48 0.42 0.36 0.38 0.42 0.51 0.52 0.46 0.45 0.32 0.34 0.48
1.21 1.19 1.18 1.11 1.02 0.92 0.87 0.87 0.88 0.82 0.75 0.70 0.64 0.69 0.92 0.69 0.43 0.41 0.51 0.55 0.60 0.58 0.58 0.54 0.46 0.46 0.44 0.40 0.38 0.45 0.46 0.54 0.60 0.56 0.51 0.49 0.39 0.33 0.34 0.38 0.45 0.49 0.58 0.58 0.47 0.49 0.40
1.24 1.19 1.16 1.12 1.02 0.90 0.85 0.83 0.85 0.81 0.76 0.76 0.65 0.54 0.65 0.67 0.62 0.53 0.48 0.49 0.48 0.61 0.58 0.60 0.54 0.51 0.43 0.39 0.40 0.39 0.45 0.52 0.61 0.59 0.59 0.53 0.45 0.40 0.31 0.32 0.42 0.44 0.52 0.63 0.54 0.43 0.49
1.30 1.23 1.11 1.06 0.94 0.88 0.87 0.86 0.88 0.83 0.82 0.78 0.60 0.48 0.58 0.48 0.54 0.56 0.55 0.52 0.46 0.47 0.58 0.60 0.53 0.54 0.53 0.43 0.42 0.39 0.45 0.48 0.58 0.67 0.63 0.54 0.42 0.44 0.44 0.46 0.46 0.49 0.50 0.55 0.54 0.53 0.45
1.30 1.26 1.13 0.99 0.94 0.88 0.86 0.84 0.87 0.81 0.78 0.71 0.53 0.50 0.57 0.49 0.50 0.50 0.52 0.49 0.48 0.50 0.49 0.51 0.50 0.55 0.58 0.53 0.53 0.46 0.50 0.51 0.52 0.64 0.62 0.64 0.46 0.47 0.42 0.46 0.46 0.46 0.49 0.51 0.56 0.58 0.57
1.26 1.24 1.18 0.96 0.94 0.90 0.89 0.88 0.88 0.82 0.74 0.61 0.70 0.72 0.61 0.50 0.48 0.45 0.47 0.49 0.51 0.55 0.53 0.55 0.55 0.54 0.54 0.60 0.65 0.66 0.65 0.63 0.62 0.60 0.61 0.62 0.56 0.49 0.40 0.49 0.47 0.43 0.48 0.48 0.55 0.62 0.60
1.22 1.20 1.14 0.97 0.96 0.93 0.89 0.88 0.89 0.86 0.81 0.71 0.73 0.69 0.56 0.42 0.48 0.48 0.51 0.54 0.53 0.56 0.51 0.56 0.61 0.56 0.64 0.77 0.74 0.71 0.68 0.64 0.64 0.64 0.67 0.60 0.61 0.57 0.46 0.48 0.35 0.49 0.61 0.56 0.53 0.62 0.66
1.21 1.15 1.05 0.99 0.97 0.96 0.94 0.92 0.91 0.89 0.85 0.77 0.81 0.72 0.61 0.43 0.49 0.49 0.52 0.53 0.58 0.59 0.57 0.59 0.63 0.67 0.72 0.67 0.57 0.53 0.55 0.57 0.58 0.63 0.63 0.67 0.63 0.55 0.48 0.44 0.49 0.52 0.59 0.57 0.52 0.49 0.68
1.15 1.11 1.05 1.00 0.98 0.97 0.96 0.94 0.91 0.89 0.86 0.82 0.83 0.84 0.70 0.52 0.46 0.57 0.52 0.56 0.50 0.51 0.52 0.57 0.67 0.74 0.70 0.60 0.53 0.41 0.40 0.49 0.50 0.54 0.65 0.63 0.64 0.61 0.56 0.43 0.38 0.50 0.60 0.68 0.66 0.43 0.71
1.17 1.10 1.03 0.98 0.98 0.98 0.97 0.94 0.91 0.89 0.85 0.78 0.79 0.87 0.75 0.56 0.61 0.60 0.49 0.46 0.57 0.53 0.47 0.52 0.54 0.58 0.72 0.56 0.48 0.46 0.43 0.55 0.43 0.45 0.50 0.53 0.56 0.49 0.51 0.51 0.56 0.70 0.73 0.73 0.46 0.50 0.75
1.14 1.06 1.01 0.96 0.96 0.95 0.94 0.94 0.91 0.87 0.85 0.79 0.70 0.85 0.70 0.57 0.56 0.63 0.64 0.55 0.58 0.56 0.46 0.55 0.52 0.60 0.59 0.51 0.54 0.53 0.51 0.56 0.53 0.57 0.55 0.51 0.51 0.50 0.53 0.45 0.44 0.79 0.80 0.60 0.64 0.74 0.75
1.12 1.05 1.02 1.00 0.98 0.96 0.95 0.91 0.89 0.85 0.82 0.84 0.65 0.70 0.79 0.62 0.51 0.63 0.64 0.68 0.67 0.68 0.60 0.59 0.53 0.59 0.68 0.58 0.61 0.65 0.59 0.67 0.69 0.52 0.74 0.57 0.66 0.60 0.62 0.60 0.78 0.86 0.83 0.87 0.78 0.70 0.82

GFSGBSN_prec_pwat_168.txt.gz
Precipitable_Water
1.05 1.02 0.97 0.97 0.95 0.93 0.91 0.88 0.85 0.83 0.80 0.75 0.72 0.64 0.60 0.61 0.62 0.61 0.60 0.60 0.59 0.56 0.48 0.45 0.46 0.45 0.42 0.37 0.47 0.69 0.80 0.62 0.69 0.74 0.75 0.84 0.87 0.85 0.83 0.90 1.03 1.03 1.16 1.30 1.42 1.42 1.35
1.08 1.02 0.98 0.96 0.94 0.91 0.89 0.88 0.86 0.84 0.85 0.84 0.80 0.75 0.67 0.62 0.63 0.65 0.63 0.60 0.59 0.59 0.56 0.50 0.45 0.47 0.29 0.30 0.54 0.75 0.76 0.65 0.61 0.69 0.72 0.86 0.82 0.93 0.89 0.94 0.99 1.13 1.18 1.25 1.35 1.35 1.36
1.05 0.99 0.98 0.95 0.92 0.89 0.86 0.84 0.83 0.82 0.83 0.86 0.92 0.93 0.80 0.71 0.63 0.64 0.65 0.64 0.61 0.58 0.58 0.57 0.55 0.51 0.28 0.29 0.62 0.77 0.68 0.61 0.61 0.69 0.72 0.84 0.98 0.85 0.96 0.90 1.15 1.15 0.99 1.11 1.23 1.34 1.32
1.01 0.96 0.94 0.92 0.89 0.87 0.84 0.82 0.81 0.80 0.80 0.82 0.89 0.92 0.96 0.85 0.72 0.63 0.64 0.63 0.65 0.64 0.64 0.59 0.61 0.50 0.23 0.45 0.69 0.67 0.61 0.52 0.59 0.73 0.87 0.98 0.99 0.94 0.96 1.09 1.01 0.93 0.98 0.77 1.06 1.14 1.27
0.96 0.94 0.92 0.90 0.87 0.85 0.82 0.81 0.80 0.81 0.81 0.82 0.88 0.91 0.93 0.97 0.84 0.69 0.63 0.65 0.72 0.69 0.67 0.64 0.52 0.47 0.29 0.65 0.55 0.58 0.57 0.41 0.54 0.74 0.78 0.96 0.97 0.91 0.94 0.81 0.72 0.85 0.70 0.76 0.90 1.17 1.16
0.96 0.95 0.94 0.92 0.89 0.88 0.86 0.85 0.84 0.83 0.84 0.87 0.91 0.91 0.93 0.96 0.89 0.80 0.64 0.69 0.76 0.69 0.70 0.69 0.62 0.41 0.47 0.47 0.58 0.59 0.55 0.53 0.55 0.69 0.64 0.70 0.72 0.67 0.77 0.69 0.49 0.58 0.71 0.80 0.80 1.03 1.13
0.99 0.97 0.94 0.91 0.89 0.88 0.88 0.88 0.87 0.87 0.87 0.89 0.94 0.92 0.91 0.95 0.97 0.86 0.66 0.57 0.52 0.51 0.59 0.42 0.44 0.44 0.48 0.62 0.61 0.50 0.51 0.53 0.51 0.49 0.42 0.54 0.53 0.51 0.58 0.63 0.62 0.64 0.67 0.69 0.90 1.06 0.98
1.02 0.99 0.97 0.94 0.91 0.89 0.88 0.88 0.88 0.88 0.88 0.87 0.92 0.93 0.90 0.93 0.97 0.89 0.70 0.38 0.45 0.57 0.40 0.52 0.54 0.56 0.58 0.62 0.48 0.49 0.53 0.44 0.41 0.36 0.45 0.48 0.45 0.53 0.58 0.58 0.58 0.60 0.59 0.64 0.84 1.04 1.01
1.04 1.02 0.99 0.97 0.95 0.91 0.88 0.88 0.88 0.86 0.86 0.85 0.89 0.94 0.89 0.94 0.97 0.82 0.60 0.45 0.54 0.56 0.42 0.47 0.50 0.52 0.52 0.56 0.46 0.42 0.45 0.42 0.34 0.32 0.38 0.42 0.46 0.51 0.49 0.50 0.46 0.52 0.53 0.63 0.68 0.94 1.04
1.07 1.05 1.03 1.01 0.98 0.94 0.88 0.87 0.89 0.86 0.83 0.83 0.85 0.92 0.89 0.95 0.79 0.67 0.52 0.60 0.64 0.66 0.40 0.44 0.49 0.53 0.57 0.55 0.41 0.50 0.47 0.37 0.32 0.29 0.34 0.40 0.45 0.45 0.43 0.39 0.43 0.40 0.58 0.64 0.70 0.71 0.63
1.10 1.09 1.05 1.00 0.97 0.93 0.91 0.84 0.86 0.87 0.82 0.81 0.83 0.90 0.88 0.95 0.68 0.57 0.63 0.67 0.61 0.58 0.31 0.50 0.50 0.68 0.61 0.48 0.43 0.40 0.43 0.37 0.30 0.29 0.31 0.34 0.42 0.42 0.38 0.34 0.43 0.39 0.56 0.66 0.70 0.70 0.73
1.13 1.11 1.05 1.00 0.97 0.92 0.88 0.86 0.82 0.83 0.82 0.78 0.81 0.87 0.88 0.90 0.78 0.67 0.72 0.66 0.51 0.36 0.33 0.48 0.54 0.51 0.49 0.48 0.43 0.46 0.41 0.39 0.35 0.32 0.36 0.42 0.46 0.41 0.40 0.36 0.43 0.54 0.57 0.63 0.66 0.65 0.53
1.16 1.12 1.06 0.99 0.96 0.90 0.83 0.80 0.76 0.80 0.78 0.76 0.81 0.86 0.88 0.92 0.59 0.79 0.71 0.53 0.31 0.32 0.49 0.45 0.44 0.51 0.47 0.43 0.41 0.42 0.41 0.37 0.31 0.27 0.28 0.34 0.40 0.44 0.43 0.34 0.47 0.48 0.44 0.36 0.34 0.39 0.38
1.16 1.14 1.10 1.02 0.93 0.89 0.81 0.75 0.71 0.76 0.77 0.76 0.84 0.85 0.84 0.83 0.82 0.78 0.57 0.43 0.25 0.38 0.41 0.44 0.43 0.47 0.46 0.45 0.43 0.43 0.41 0.38 0.40 0.38 0.31 0.25 0.21 0.34 0.42 0.35 0.32 0.38 0.37 0.30 0.22 0.25 0.36
1.18 1.15 1.09 1.04 0.95 0.85 0.78 0.73 0.70 0.72 0.75 0.76 0.85 0.75 0.72 0.80 0.82 0.74 0.48 0.35 0.27 0.38 0.42 0.39 0.43 0.41 0.43 0.46 0.44 0.44 0.42 0.41 0.42 0.41 0.34 0.31 0.28 0.34 0.36 0.38 0.36 0.37 0.35 0.39 0.33 0.44 0.35
1.19 1.15 1.09 1.05 0.98 0.87 0.76 0.73 0.73 0.71 0.71 0.77 0.74 0.73 0.67 0.79 0.81 0.60 0.44 0.38 0.34 0.40 0.45 0.47 0.38 0.42 0.39 0.42 0.42 0.43 0.43 0.45 0.43 0.46 0.45 0.40 0.32 0.37 0.39 0.39 0.38 0.36 0.41 0.32 0.35 0.26 0.26
1.19 1.17 1.10 1.07 0.99 0.90 0.75 0.75 0.75 0.72 0.70 0.79 0.72 0.56 0.74 0.80 0.70 0.53 0.38 0.39 0.41 0.49 0.51 0.50 0.43 0.42 0.42 0.41 0.41 0.40 0.41 0.47 0.50 0.48 0.48 0.43 0.39 0.36 0.39 0.37 0.35 0.38 0.36 0.37 0.38 0.38 0.32
1.19 1.13 1.07 1.07 1.00 0.90 0.77 0.77 0.74 0.73 0.72 0.75 0.68 0.45 0.78 0.72 0.44 0.44 0.37 0.45 0.57 0.56 0.60 0.55 0.51 0.46 0.38 0.36 0.35 0.37 0.37 0.43 0.54 0.53 0.47 0.48 0.43 0.37 0.38 0.42 0.43 0.41 0.38 0.39 0.34 0.35 0.42
1.19 1.09 1.06 1.03 0.97 0.91 0.82 0.77 0.72 0.72 0.75 0.66 0.58 0.60 0.74 0.66 0.36 0.41 0.48 0.48 0.52 0.50 0.52 0.52 0.50 0.52 0.53 0.40 0.34 0.37 0.39 0.46 0.53 0.53 0.50 0.51 0.44 0.37 0.37 0.40 0.43 0.40 0.42 0.40 0.41 0.44 0.38
1.15 1.13 1.06 1.01 0.96 0.93 0.88 0.80 0.75 0.69 0.73 0.67 0.53 0.46 0.60 0.60 0.57 0.46 0.43 0.44 0.46 0.56 0.53 0.55 0.52 0.55 0.52 0.48 0.48 0.41 0.43 0.49 0.55 0.56 0.60 0.56 0.46 0.42 0.36 0.39 0.42 0.40 0.43 0.43 0.41 0.38 0.42
1.17 1.16 1.12 1.04 0.97 0.91 0.88 0.84 0.79 0.75 0.74 0.67 0.52 0.45 0.58 0.44 0.48 0.50 0.49 0.46 0.43 0.46 0.57 0.57 0.52 0.52 0.49 0.45 0.48 0.47 0.51 0.51 0.56 0.61 0.59 0.50 0.44 0.45 0.46 0.44 0.44 0.44 0.43 0.43 0.40 0.42 0.39
1.21 1.18 1.14 1.08 0.97 0.93 0.87 0.85 0.82 0.79 0.77 0.62 0.48 0.45 0.52 0.46 0.50 0.46 0.47 0.45 0.44 0.47 0.49 0.47 0.48 0.52 0.52 0.47 0.50 0.48 0.54 0.55 0.52 0.59 0.57 0.61 0.45 0.50 0.45 0.49 0.45 0.44 0.48 0.49 0.49 0.49 0.48
1.22 1.19 1.14 1.08 1.00 0.94 0.91 0.88 0.82 0.82 0.82 0.63 0.68 0.70 0.58 0.48 0.46 0.41 0.42 0.43 0.43 0.47 0.49 0.52 0.51 0.48 0.46 0.52 0.60 0.63 0.65 0.63 0.61 0.57 0.55 0.54 0.52 0.45 0.38 0.50 0.49 0.42 0.48 0.50 0.52 0.54 0.51
1.21 1.20 1.14 1.07 1.02 0.98 0.95 0.92 0.86 0.82 0.86 0.78 0.72 0.67 0.50 0.38 0.42 0.41 0.44 0.45 0.43 0.48 0.44 0.51 0.56 0.50 0.56 0.66 0.65 0.62 0.60 0.58 0.58 0.58 0.63 0.55 0.54 0.53 0.43 0.44 0.34 0.48 0.58 0.57 0.55 0.54 0.56
1.22 1.19 1.14 1.08 1.02 0.99 0.97 0.94 0.90 0.82 0.79 0.78 0.78 0.66 0.53 0.37 0.43 0.44 0.45 0.46 0.49 0.51 0.47 0.47 0.55 0.62 0.66 0.58 0.47 0.41 0.41 0.42 0.43 0.48 0.52 0.59 0.57 0.49 0.44 0.42 0.44 0.50 0.57 0.58 0.54 0.52 0.61
1.23 1.19 1.14 1.08 1.03 0.99 0.96 0.94 0.91 0.85 0.80 0.78 0.79 0.80 0.64 0.45 0.40 0.49 0.43 0.44 0.38 0.39 0.42 0.47 0.56 0.60 0.62 0.52 0.43 0.35 0.31 0.37 0.35 0.41 0.53 0.54 0.60 0.53 0.48 0.41 0.36 0.50 0.62 0.71 0.69 0.51 0.69
1.24 1.18 1.12 1.06 1.00 0.96 0.93 0.91 0.89 0.86 0.80 0.74 0.76 0.78 0.66 0.48 0.51 0.53 0.42 0.40 0.47 0.44 0.39 0.44 0.46 0.47 0.59 0.47 0.39 0.36 0.35 0.48 0.37 0.36 0.39 0.45 0.49 0.45 0.47 0.47 0.49 0.63 0.71 0.73 0.49 0.51 0.77
1.22 1.16 1.10 1.01 0.97 0.96 0.94 0.93 0.90 0.87 0.85 0.78 0.71 0.76 0.59 0.49 0.50 0.53 0.55 0.46 0.47 0.47 0.37 0.44 0.45 0.51 0.50 0.41 0.43 0.44 0.44 0.50 0.49 0.54 0.49 0.44 0.43 0.44 0.48 0.43 0.40 0.77 0.75 0.65 0.69 0.80 0.82
1.19 1.14 1.06 0.98 0.96 0.96 0.95 0.94 0.91 0.89 0.88 0.84 0.63 0.72 0.74 0.58 0.49 0.61 0.62 0.65 0.62 0.58 0.51 0.54 0.50 0.50 0.51 0.45 0.47 0.48 0.48 0.54 0.53 0.43 0.68 0.49 0.60 0.51 0.56 0.52 0.73 0.84 0.84 0.93 0.92 0.82 0.84

GFSGBSN_prec_pwat_171.txt.gz
Precipitable_Water
1.00 0.98 0.95 0.92 0.90 0.87 0.85 0.84 0.82 0.82 0.82 0.82 0.78 0.74 0.63 0.62 0.64 0.62 0.60 0.60 0.60 0.57 0.49 0.46 0.47 0.49 0.51 0.39 0.45 0.64 0.76 0.67 0.73 0.79 0.73 0.78 0.93 0.85 0.77 0.91 1.02 1.00 1.12 1.25 1.37 1.40 1.37
0.96 0.94 0.92 0.89 0.86 0.84 0.81 0.80 0.80 0.80 0.80 0.82 0.86 0.92 0.79 0.67 0.64 0.66 0.65 0.61 0.60 0.59 0.55 0.48 0.45 0.47 0.33 0.35 0.55 0.79 0.79 0.58 0.57 0.69 0.67 0.82 0.89 0.92 0.87 0.94 0.95 1.11 1.13 1.20 1.33 1.34 1.36
0.93 0.92 0.90 0.87 0.85 0.83 0.81 0.80 0.80 0.81 0.82 0.82 0.86 0.91 0.92 0.81 0.67 0.64 0.66 0.65 0.61 0.59 0.58 0.55 0.56 0.47 0.25 0.33 0.62 0.80 0.74 0.59 0.60 0.66 0.67 0.90 0.98 0.87 0.92 0.88 1.10 1.10 0.92 1.06 1.20 1.29 1.24
0.95 0.93 0.90 0.88 0.87 0.86 0.85 0.84 0.83 0.83 0.85 0.87 0.90 0.94 0.91 0.93 0.82 0.65 0.65 0.65 0.64 0.63 0.63 0.59 0.61 0.48 0.21 0.42 0.68 0.69 0.61 0.58 0.62 0.68 0.87 0.96 1.07 0.90 0.92 1.05 0.99 0.89 0.94 0.77 1.03 1.17 1.19
0.97 0.95 0.92 0.89 0.88 0.87 0.87 0.87 0.86 0.86 0.86 0.87 0.92 0.98 0.93 0.93 0.93 0.79 0.64 0.65 0.70 0.67 0.67 0.65 0.51 0.43 0.24 0.55 0.57 0.65 0.59 0.46 0.54 0.65 0.83 1.03 0.95 0.89 0.92 0.76 0.70 0.80 0.64 0.77 0.89 1.15 1.15
1.01 0.99 0.95 0.93 0.91 0.89 0.88 0.88 0.88 0.87 0.87 0.87 0.91 0.99 0.96 0.91 0.95 0.84 0.70 0.68 0.75 0.68 0.67 0.67 0.59 0.38 0.42 0.41 0.58 0.58 0.58 0.46 0.45 0.67 0.82 0.76 0.76 0.66 0.73 0.66 0.47 0.53 0.59 0.70 0.76 1.02 1.10
1.03 1.00 0.98 0.96 0.95 0.92 0.87 0.87 0.88 0.87 0.86 0.86 0.88 0.95 0.97 0.91 0.94 0.90 0.73 0.56 0.50 0.48 0.52 0.40 0.38 0.44 0.48 0.61 0.66 0.57 0.58 0.47 0.50 0.65 0.48 0.55 0.53 0.51 0.57 0.62 0.62 0.60 0.61 0.61 0.78 1.02 1.00
1.05 1.04 1.01 0.98 0.97 0.93 0.92 0.86 0.86 0.88 0.85 0.84 0.84 0.91 0.96 0.91 0.93 0.92 0.78 0.37 0.42 0.58 0.42 0.53 0.53 0.52 0.61 0.64 0.48 0.53 0.55 0.43 0.44 0.45 0.45 0.48 0.49 0.55 0.55 0.56 0.57 0.53 0.53 0.60 0.77 0.97 1.00
1.10 1.08 1.03 0.99 0.96 0.92 0.88 0.86 0.81 0.84 0.85 0.82 0.83 0.88 0.95 0.90 0.96 0.87 0.68 0.44 0.51 0.57 0.43 0.44 0.49 0.50 0.55 0.57 0.47 0.47 0.53 0.46 0.42 0.39 0.40 0.45 0.50 0.53 0.51 0.50 0.44 0.41 0.46 0.53 0.62 0.86 0.97
1.13 1.10 1.06 0.98 0.94 0.91 0.82 0.79 0.78 0.77 0.82 0.81 0.82 0.86 0.93 0.91 0.84 0.77 0.61 0.55 0.59 0.67 0.40 0.44 0.49 0.52 0.57 0.55 0.45 0.56 0.54 0.46 0.39 0.34 0.40 0.45 0.51 0.50 0.46 0.43 0.41 0.33 0.49 0.58 0.68 0.65 0.61
1.14 1.12 1.08 1.02 0.92 0.86 0.81 0.75 0.73 0.74 0.78 0.79 0.80 0.86 0.88 0.94 0.71 0.58 0.60 0.63 0.66 0.60 0.30 0.49 0.51 0.68 0.60 0.51 0.46 0.42 0.53 0.40 0.32 0.33 0.37 0.40 0.41 0.43 0.44 0.40 0.42 0.38 0.51 0.58 0.67 0.64 0.68
1.16 1.13 1.06 1.02 0.96 0.86 0.77 0.72 0.70 0.70 0.76 0.77 0.80 0.85 0.85 0.89 0.77 0.69 0.72 0.61 0.51 0.39 0.32 0.46 0.53 0.50 0.48 0.50 0.45 0.43 0.42 0.44 0.38 0.32 0.33 0.39 0.46 0.45 0.46 0.48 0.48 0.57 0.54 0.56 0.63 0.58 0.46
1.17 1.14 1.06 1.02 0.96 0.88 0.77 0.69 0.67 0.67 0.73 0.78 0.82 0.82 0.87 0.92 0.63 0.77 0.70 0.48 0.30 0.30 0.48 0.43 0.45 0.50 0.47 0.43 0.45 0.43 0.39 0.34 0.29 0.25 0.24 0.29 0.36 0.44 0.48 0.41 0.58 0.55 0.42 0.31 0.31 0.35 0.34
1.18 1.15 1.05 1.01 0.95 0.88 0.79 0.69 0.67 0.68 0.71 0.81 0.80 0.80 0.86 0.84 0.83 0.77 0.58 0.42 0.25 0.35 0.40 0.44 0.44 0.45 0.45 0.44 0.44 0.42 0.41 0.38 0.39 0.35 0.30 0.27 0.24 0.32 0.43 0.41 0.39 0.46 0.40 0.27 0.21 0.24 0.31
1.17 1.11 1.01 0.97 0.92 0.87 0.79 0.70 0.66 0.69 0.70 0.83 0.80 0.72 0.72 0.79 0.84 0.73 0.49 0.35 0.28 0.36 0.41 0.42 0.44 0.42 0.43 0.47 0.43 0.42 0.41 0.40 0.42 0.41 0.34 0.32 0.30 0.35 0.35 0.39 0.45 0.42 0.35 0.41 0.32 0.35 0.30
1.17 1.06 0.98 0.93 0.90 0.87 0.82 0.71 0.66 0.69 0.69 0.84 0.74 0.65 0.62 0.78 0.78 0.59 0.44 0.37 0.35 0.41 0.46 0.46 0.39 0.43 0.40 0.43 0.42 0.41 0.41 0.45 0.43 0.46 0.45 0.40 0.32 0.38 0.38 0.37 0.39 0.39 0.44 0.32 0.36 0.27 0.25
1.12 1.05 0.99 0.96 0.90 0.88 0.84 0.75 0.68 0.68 0.69 0.83 0.74 0.57 0.70 0.77 0.68 0.49 0.36 0.39 0.41 0.50 0.51 0.48 0.43 0.43 0.44 0.40 0.40 0.39 0.40 0.44 0.45 0.46 0.47 0.44 0.39 0.38 0.40 0.37 0.36 0.36 0.35 0.37 0.38 0.36 0.28
1.10 1.05 1.03 1.00 0.92 0.88 0.86 0.78 0.72 0.68 0.68 0.78 0.68 0.46 0.73 0.72 0.43 0.44 0.34 0.41 0.51 0.54 0.58 0.51 0.47 0.44 0.40 0.38 0.37 0.38 0.38 0.42 0.52 0.49 0.43 0.46 0.40 0.36 0.38 0.43 0.45 0.42 0.39 0.39 0.33 0.33 0.38
1.11 1.07 1.05 1.04 0.97 0.87 0.84 0.81 0.74 0.73 0.69 0.65 0.58 0.59 0.73 0.65 0.37 0.40 0.46 0.46 0.51 0.49 0.49 0.49 0.47 0.50 0.50 0.41 0.34 0.37 0.39 0.47 0.53 0.49 0.46 0.48 0.41 0.36 0.39 0.42 0.43 0.39 0.41 0.41 0.41 0.40 0.36
1.12 1.08 1.08 1.05 0.99 0.91 0.87 0.80 0.76 0.76 0.72 0.64 0.53 0.44 0.58 0.60 0.57 0.46 0.43 0.43 0.43 0.55 0.51 0.54 0.52 0.55 0.52 0.48 0.50 0.40 0.41 0.47 0.52 0.54 0.56 0.52 0.42 0.39 0.35 0.41 0.45 0.41 0.42 0.42 0.42 0.37 0.36
1.14 1.11 1.13 1.07 1.01 0.97 0.90 0.83 0.77 0.78 0.75 0.70 0.53 0.46 0.56 0.42 0.46 0.48 0.49 0.47 0.43 0.45 0.56 0.56 0.50 0.52 0.50 0.45 0.46 0.46 0.50 0.49 0.52 0.56 0.55 0.49 0.38 0.40 0.40 0.43 0.45 0.46 0.44 0.45 0.42 0.42 0.37
1.17 1.16 1.14 1.09 1.03 0.99 0.94 0.89 0.81 0.77 0.78 0.63 0.49 0.47 0.54 0.47 0.49 0.44 0.44 0.42 0.41 0.44 0.48 0.44 0.46 0.50 0.50 0.44 0.47 0.46 0.52 0.53 0.52 0.59 0.57 0.60 0.46 0.49 0.42 0.43 0.42 0.42 0.48 0.49 0.48 0.49 0.47
1.20 1.19 1.16 1.10 1.04 1.00 0.96 0.92 0.85 0.78 0.78 0.62 0.68 0.70 0.57 0.48 0.45 0.40 0.41 0.43 0.44 0.47 0.49 0.51 0.48 0.45 0.43 0.48 0.56 0.59 0.61 0.61 0.60 0.56 0.56 0.56 0.52 0.48 0.39 0.47 0.44 0.37 0.44 0.49 0.49 0.53 0.50
1.23 1.20 1.15 1.09 1.03 1.00 0.97 0.93 0.88 0.79 0.82 0.75 0.70 0.65 0.47 0.36 0.40 0.40 0.44 0.45 0.42 0.45 0.43 0.51 0.55 0.49 0.55 0.65 0.62 0.59 0.56 0.55 0.55 0.55 0.58 0.50 0.52 0.53 0.43 0.46 0.31 0.43 0.53 0.54 0.53 0.55 0.60
1.25 1.21 1.14 1.08 1.02 0.98 0.96 0.92 0.87 0.82 0.79 0.78 0.76 0.66 0.53 0.38 0.43 0.43 0.45 0.43 0.44 0.45 0.44 0.46 0.50 0.58 0.62 0.56 0.45 0.41 0.40 0.42 0.42 0.47 0.49 0.54 0.50 0.43 0.40 0.40 0.45 0.48 0.53 0.51 0.50 0.48 0.60
1.25 1.20 1.14 1.08 1.01 0.96 0.96 0.93 0.88 0.83 0.80 0.78 0.75 0.76 0.64 0.46 0.41 0.49 0.43 0.45 0.39 0.38 0.39 0.45 0.56 0.58 0.57 0.48 0.42 0.32 0.29 0.36 0.34 0.41 0.52 0.51 0.51 0.45 0.44 0.37 0.34 0.50 0.63 0.72 0.68 0.45 0.64
1.25 1.18 1.14 1.07 1.00 0.95 0.94 0.93 0.90 0.86 0.84 0.78 0.75 0.75 0.63 0.47 0.51 0.52 0.42 0.40 0.46 0.43 0.38 0.42 0.44 0.49 0.59 0.46 0.39 0.36 0.34 0.46 0.35 0.34 0.37 0.43 0.47 0.42 0.42 0.41 0.46 0.66 0.72 0.75 0.47 0.51 0.73
1.22 1.17 1.11 1.03 0.97 0.95 0.94 0.91 0.89 0.89 0.86 0.79 0.71 0.75 0.60 0.49 0.49 0.52 0.54 0.46 0.48 0.48 0.37 0.43 0.43 0.49 0.47 0.41 0.42 0.43 0.43 0.48 0.47 0.52 0.49 0.44 0.41 0.42 0.47 0.42 0.39 0.75 0.75 0.59 0.76 0.84 0.80
1.20 1.15 1.07 1.02 0.97 0.94 0.92 0.90 0.89 0.86 0.85 0.83 0.64 0.75 0.75 0.57 0.50 0.62 0.63 0.64 0.61 0.60 0.51 0.54 0.49 0.50 0.51 0.42 0.45 0.46 0.45 0.49 0.49 0.40 0.65 0.46 0.58 0.52 0.54 0.52 0.74 0.82 0.80 0.86 0.90 0.95 0.92